Regional Weather Roundup
Issued by NWS Mobile, AL

Home | Current Version | Previous Version | Text Only | Print | Product List | Glossary On
Versions: 1 2 3 4 5 6 7 8 9 10 11 12 13 14 15 16 17 18 19 20 21 22 23 24 25 26 27 28 29 30 31 32 33 34 35 36 37 38 39 40 41 42 43 44 45 46 47 48 49 50
000
ASUS44 KMOB 012310
RWRMOB
REGIONAL WEATHER ROUNDUP
NATIONAL WEATHER SERVICE MOBILE AL
600 PM CDT MON SEP 01 2014

NOTE: "FAIR" INDICATES FEW OR NO CLOUDS BELOW 12,000 FEET WITH NO
      SIGNIFICANT WEATHER AND/OR OBSTRUCTIONS TO VISIBILITY.

  * THESE STATIONS ARE PART OF THE UNIVERSITY OF SOUTH ALABAMA
    MESONET AND ARE NOT UNDER NWS OR FAA QUALITY CONTROL.

ALZ061>064-020000-
COASTAL ALABAMA

CITY           SKY/WX    TMP DP  RH WIND       PRES   REMARKS
MOBILE REG APT CLOUDY    85  75  72 S8        30.04R
BROOKLEY FIELD MOSUNNY   86  77  74 S8G20     30.04R HX  97
USA CAMPUS*      N/A     86  73  66 SE5       30.01R
DOG RIVER*       N/A     86  77  74 S9        30.03R HX  97


CITY           SKY/WX    TMP DP  RH WIND       PRES   REMARKS
MOUNT VERNON*    N/A     86  72  62 CALM      30.02R
SARALAND*      NOT AVBL
BAY MINETTE*   NOT AVBL
LOXLEY*          N/A     84  72  65 SE13      30.02S
ROBERTSDALE*     N/A     84  73  70 SW6       30.02S
FAIRHOPE*        N/A     86  75  70 S7        30.02R HX  95
ELBERTA*         N/A     86  75  70 SE7       30.03R HX  95
FOLEY*         NOT AVBL
GRAND BAY*       N/A     86  75  70 S13       30.01R HX  95
DAUPHIN ISLND* NOT AVBL
BON SCOUR NWR* NOT AVBL
GULF SHORES    MOSUNNY   86  76  71 SE8       30.03R HX  96

$$

ALZ051>060-020000-
INTERIOR SOUTHWEST AND SOUTH CENTRAL ALABAMA

CITY           SKY/WX    TMP DP  RH WIND       PRES   REMARKS
GREENVILLE     PTSUNNY   87  70  56 W13G18    30.04R
EVERGREEN      MOSUNNY   91  70  49 SE6       30.02S HX  96
CASTLEBERRY*   NOT AVBL
ATMORE*          N/A     88  70  55 SE3       30.03S
DIXIE*         NOT AVBL
ANDALUSIA/OPP  CLOUDY    85  74  69 VRB3      30.03F
ANDALUSIA*     NOT AVBL
FLORALA APT    MOSUNNY   90  68  48 S10       30.05S
FLORALA*         N/A     90  66  45 SW3       30.00R

$$

FLZ001>006-020000-
WESTERN FLORIDA PANHANDLE

CITY           SKY/WX    TMP DP  RH WIND       PRES   REMARKS
PENSACOLA      MOSUNNY   84  74  71 S12       30.03S
NAS PENSACOLA  MOSUNNY   86  76  71 S9        30.03R HX  96
MILTON         SUNNY     86  73  65 S9        30.04R
WHTNG S FIELD  SUNNY     87  75  67 S8        30.04R HX  96


CITY           SKY/WX    TMP DP  RH WIND       PRES   REMARKS
WALNUT HILL*   NOT AVBL
JAY*           NOT AVBL
DUKE FIELD     SUNNY     88  72  59 S10       30.04S HX  95
CRESTVIEW      SUNNY     89  71  55 S7        30.05S HX  95
VALPARAISO     MOSUNNY   88  75  64 S9        30.04S HX  98
DESTIN         SUNNY     88  76  67 S8        30.03F HX  99

$$

MSZ076-079-020000-
INTERIOR SOUTHEAST MISSISSIPPI

CITY           SKY/WX    TMP DP  RH WIND       PRES   REMARKS
LEAKESVILLE*     N/A     88  70  55 W6          N/A
AGRICOLA*      NOT AVBL

$$

MARINE OBSERVATIONS

STATION/POSITION TIME  TEMP    WIND        PRES    WAVE
                       AIR SEA DIR/SP/G            HT/PER
                 (UTC) (F)     (DEG/KT/KT) (MB)    (FT/S)
PASCAGOULA       2300   85     160/ 11/ 13 1016.7R
PETIT BOIS ISLND 2300   84     180/  7/  8 1017.0R
GRAND BAY        2200   86     170/ 13     1017.0F
KATRINA CUT      2200   86     160/ 15     1016.9F
CEDAR POINT      2200   87     160/ 12     1016.3F
E DAUPHIN ISLAND 2200   85     150/ 13/ 14 1016.6F
MIDDLE BAY LIGHT 2200   86     160/ 15     1016.9R
USCG MOBILE BAY  2300   86 87  180/ 11/ 14 1015.7S
STATE DOCKS      2300   86 88              1016.7R
MEAHER PARK      2200   87     190/ 14     1015.9S
WEEKS BAY        2200   88                   N/A
FORT MORGAN      2300   85     180/ 12/ 13 1016.6R
12 S ORANGE BCH  2300   86 86  150/ 12/ 14 1016.9R   4/ 8
PENSACOLA BAY    2300   88 89  170/  5/ 11 1017.3S
64 S DAUPHIN ISL 2136   83 86  170/ 14/ 17 1016.7
67 S FORT MORGAN 2200   82                 1016.6F

$$

SELECTED LOCATIONS ACROSS THE REGION

CITY           SKY/WX    TMP DP  RH WIND       PRES   REMARKS
NEW ORLEANS    CLOUDY    85  75  72 SE7       29.99S
GULFPORT       MOSUNNY   87  76  69 S12       30.01S HX  97
PASCAGOULA AP  PTSUNNY   86  76  71 S10       30.03R HX  96
PASCAGOULA*      N/A     86  73  66 S3        30.02R
HATTIESBURG    PTSUNNY   86  75  69 S7        30.03R HX  95
LAUREL         PTSUNNY  N/A N/A N/A SW5       30.04S
MERIDIAN       PTSUNNY   89  69  51 S8        30.02R
JACKSON        CLOUDY    78  73  84 CALM      30.01F
MONTGOMERY     SUNNY     93  69  45 SW5       30.01F HX  98
TROY           MOSUNNY   92  69  47 W5        30.04R HX  97
KINSTON*       NOT AVBL
GENEVA*          N/A     88  70  55 SW12      30.04R
ASHFORD*       NOT AVBL
DOTHAN         PTSUNNY   93  66  40 S9        30.06R HX  96
PANAMA CITY    PTSUNNY   85  74  69 SE6       30.03F

$$




USA.gov is the U.S. government's official web portal to all federal, state and local government web resources and services.